Miscellaneous Local Product
Issued by NWS North Platte, NE

Home | Current Version | Previous Version | Text Only | Print | Product List | Glossary On
Versions: 1 2 3 4 5 6 7 8 9 10 11 12 13 14 15 16 17 18 19 20 21 22 23 24 25 26 27 28 29 30 31 32 33 34 35 36 37 38 39 40 41 42 43 44 45 46 47 48 49 50
000
AXUS43 KLBF 231510
MISLBF


WESTERN AND NORTH CENTRAL NEBRASKA HOURLY WEATHER ROUNDUP
NATIONAL WEATHER SERVICE NORTH PLATTE NE
1000 AM CDT SAT JUL 23 2016

NOTE: "FAIR" INDICATES FEW OR NO CLOUDS BELOW 12,000 FEET WITH NO
SIGNIFICANT WEATHER AND/OR OBSTRUCTIONS TO VISIBILITY.

NOTE: STATIONS NOT REPORTING VARIABLES SUCH AS SKY/WEATHER OR
PRESSURE ARE PROVIDED BY RAWS AND APRS NETWORKS AND ARE NOT UNDER
NATIONAL WEATHER SERVICE QUALITY CONTROL.

...OBSERVATIONS IN AND NEAR THE EASTERN PANHANDLE OF NEBRASKA...

CITY           SKY/WX    TMP DP  RH WIND       PRES   REMARKS
PINE RIDGE     SUNNY     81  60  48 W13       29.89R
CHADRON        SUNNY     80  55  42 W21G29    29.91R
ALLIANCE       SUNNY     80  60  50 W9        29.95R
SIDNEY         CLOUDY    85  58  39 SW10      30.03S
CRESCENT LAKE    N/A     79  64  60 SW9         N/A
$$

...OBSERVATIONS IN NORTHERN NEBRASKA AND FAR SOUTHERN SOUTH DAKOTA...

CITY           SKY/WX    TMP DP  RH WIND       PRES   REMARKS
WINNER         FAIR      85  64  49 S9        29.80F
VALENTINE      SUNNY     81  64  56 S7        29.84R
THEDFORD       SUNNY     83  66  56 SW16G23   29.89F
AINSWORTH      SUNNY     82  65  58 S10G16    29.87S
O`NEILL        MOSUNNY   80  68  67 S12       29.86S
ORD            CLOUDY    78  69  73 S8        29.86F
BROKEN BOW     SUNNY     78  68  71 S3        29.90R
VALENTINE NWR    N/A     78  65  64 SW9         N/A
BUTTE            N/A     77  68  74 S7          N/A
HALSEY           N/A     79  65  62 SW7G14      N/A
EWING            N/A     80  73  78 SW3         N/A
$$

...OBSERVATIONS IN SOUTHWEST NEBRASKA AND FAR NORTHEAST COLORADO...

CITY           SKY/WX    TMP DP  RH WIND       PRES   REMARKS
HOLYOKE        FAIR      79  66  65 W7        29.99F
IMPERIAL       SUNNY     78  64  61 S13       29.96S
OGALLALA       CLOUDY    77  67  71 SW6       29.95R
NORTH PLATTE   CLOUDY    82  68  62 SW10      29.92R
MCCOOK         LGT RAIN  76  67  73 VRB5      29.92R
LEXINGTON      CLOUDY    80  67  63 SW9       29.89R
STAPLETON        N/A     78  70  76 CALM        N/A
GOTHENBURG       N/A     78  62  58 W6          N/A
CALLAWAY         N/A     76  69  78 W9          N/A
$$

...OBSERVATIONS IN CENTRAL LINCOLN COUNTY AREA...

CITY           SKY/WX    TMP DP  RH WIND       PRES   REMARKS
N.P. AIRPORT   CLOUDY    82  68  62 SW10      29.92R
N.P. DOWNTOWN    N/A     81  70  68 CALM        N/A
N.P. SOUTHEAST   N/A     82  67  60 SW5G12      N/A
N.P. HILLCREST   N/A     78  68  72 W8          N/A
$$

...SOME OBSERVATIONS FROM AROUND THE REGION...

CITY           SKY/WX    TMP DP  RH WIND       PRES   REMARKS
DENVER         MOSUNNY   83  46  27 SW9       30.12R
LARAMIE        SUNNY     75  41  29 SW18G24   30.26S
CHEYENNE       SUNNY     81  41  24 NW16      30.15S
SCOTTSBLUFF    SUNNY     81  56  42 W8        29.98R
RAPID CITY     SUNNY     83  56  39 N26G35    29.86S
BISMARCK       PTSUNNY   69  64  84 NE17G23   29.78F
PIERRE         SUNNY     83  73  72 SE9       29.74F
SIOUX FALLS    CLOUDY    75  71  87 SE12      29.82F
OMAHA          CLOUDY    82  72  71 S10       29.83F
GRAND ISLAND   CLOUDY    78  71  79 S5        29.86S
KANSAS CITY    CLOUDY    87  74  64 S14       29.95F HX  95
WICHITA        PTSUNNY   88  68  51 S12       29.95F HX  91
OKLAHOMA CITY  MOSUNNY   88  67  49 S12       29.99F HX  91
DALLAS         MOSUNNY   90  71  53 SW12      29.99F HX  96
AMARILLO       SUNNY     86  56  35 SW21G28   30.09R
DODGE CITY     MOSUNNY   83  62  49 S14       29.95F
HAYS           CLOUDY    86  63  45 S16       29.89F
GOODLAND       SUNNY     80  60  50 S13       29.95S
$$




USA.gov is the U.S. government's official web portal to all federal, state and local government web resources and services.